This demonstration page uses our WeatherBlox Daily Observations layout. Learn more.

39.29038, -76.61219

Hourly Observations for September 29, 2018

Temp ( °F °C ) Dew Point ( °F °C ) Humidity (%) Winds ( mph kmh ) Pressure ( in mb ) Visibility ( mi km ) Precip ( " mm )
12:54 am 00:54 undefined 65 18.3 61 16.1 87 87 undefined N/A 30.16 1021 N/A 0 0
1:54 am 01:54 undefined 64 17.8 61 16.1 90 90 undefined N/A 30.16 1021 N/A 0 0
2:54 am 02:54 undefined 64 17.8 61 16.1 90 90 undefined N/A 30.16 1021 N/A 0 0
3:54 am 03:54 undefined 65 18.3 61 16.1 87 87 undefined N/A 30.16 1021 N/A 0 0
4:54 am 04:54 undefined 65 18.3 60 15.6 84 84 undefined N/A 30.15 1021 N/A 0 0
5:54 am 05:54 undefined 65 18.3 61 16.1 87 87 undefined N/A 30.17 1022 N/A 0 0
6:54 am 06:54 undefined 65 18.3 61 16.1 87 87 undefined N/A 30.18 1022 N/A 0 0
7:54 am 07:54 undefined 66 18.9 60 15.6 81 81 undefined N/A 30.2 1023 N/A 0 0
8:54 am 08:54 undefined 70 21.1 59 15 68 68 undefined N/A 30.24 1024 N/A 0 0
9:54 am 09:54 undefined 71 21.7 57 13.9 61 61 undefined N/A 30.24 1024 N/A 0 0
10:54 am 10:54 undefined 73 22.8 56 13.3 55 55 undefined N/A 30.25 1024 N/A 0 0
11:54 am 11:54 undefined 75 23.9 56 13.3 52 52 undefined N/A 30.24 1024 N/A 0 0
12:54 pm 12:54 undefined 78 25.6 53 11.7 42 42 undefined N/A 30.24 1024 N/A 0 0
1:54 pm 13:54 undefined 79 26.1 52 11.1 39 39 undefined N/A 30.22 1023 N/A 0 0
2:54 pm 14:54 undefined 79 26.1 52 11.1 39 39 undefined N/A 30.19 1023 N/A 0 0
3:54 pm 15:54 undefined 78 25.6 53 11.7 42 42 undefined N/A 30.17 1022 N/A 0 0
4:54 pm 16:54 undefined 78 25.6 54 12.2 43 43 undefined N/A 30.18 1022 N/A 0 0
5:54 pm 17:54 undefined 76 24.4 54 12.2 47 47 undefined N/A 30.18 1022 N/A 0 0
6:54 pm 18:54 undefined 74 23.3 57 13.9 56 56 undefined N/A 30.2 1023 N/A 0 0
7:54 pm 19:54 undefined 73 22.8 58 14.4 59 59 undefined N/A 30.23 1024 N/A 0 0
8:54 pm 20:54 undefined 71 21.7 59 15 66 66 undefined N/A 30.24 1024 N/A 0 0
9:54 pm 21:54 undefined 69 20.6 58 14.4 68 68 undefined N/A 30.26 1025 N/A 0 0
10:54 pm 22:54 undefined 68 20 57 13.9 68 68 undefined N/A 30.26 1025 N/A 0 0
11:54 pm 23:54 undefined 67 19.4 55 12.8 66 66 undefined N/A 30.27 1025 N/A 0 0

Powered by AerisWeather